Regional Weather Roundup
Issued by NWS Newport/Morehead, NC

Current Version | Previous Version | Text Only | Print | Product List | Glossary Off
Versions: 1 2 3 4 5 6 7 8 9 10 11 12 13 14 15 16 17 18 19 20 21 22 23 24 25 26 27 28 29 30 31 32 33 34 35 36 37 38 39 40 41 42 43 44 45 46 47 48 49 50
000 ASUS42 KMHX 291910 RWRMHX WEATHER ROUNDUP FOR EASTERN NORTH CAROLINA NATIONAL WEATHER SERVICE NEWPORT/MOREHEAD CITY NC 300 PM EDT WED OCT 29 2014 NOTE: "FAIR" INDICATES FEW OR NO CLOUDS BELOW 12,000 FEET WITH NO SIGNIFICANT WEATHER AND/OR OBSTRUCTIONS TO VISIBILITY NCZ015>017-031-032-045>047-102-103-292000- NORTH COAST CITY SKY/WX TMP DP RH WIND PRES REMARKS EDENTON CLOUDY 76 60 58 SW9 29.93F ELIZABETH CITY CLOUDY 79 59 50 SW16G26 29.92F KITTY HAWK MOCLDY 78 60 53 SW10G22 29.92F MANTEO PTSUNNY 77 61 56 SW13G21 29.94F $$ NCZ045>047-081-094-103-104-292000- CENTRAL COAST CITY SKY/WX TMP DP RH WIND PRES REMARKS FRISCO PTSUNNY 74 67 78 SW10 29.96F SWANQUARTER N/A 77 N/A N/A S6 29.91S $$ NCZ095-097-098-100-101-292000- SOUTHERN COAST CITY SKY/WX TMP DP RH WIND PRES REMARKS BEAUFORT PTSUNNY 76 68 76 SW14 29.97F CEDAR ISLAND N/A 81 N/A N/A SW10G17 30.00S JACKSONVILLE PTSUNNY 78 58 49 SW13 29.95F PINEY ISLAND MOCLDY 80 62 54 W9 29.95F WILMINGTON PTSUNNY 80 58 46 W15 29.97F $$ NCZ011>013-027>030-043-044-078>080-089-090>093-098-292000- COASTAL PLAIN CITY SKY/WX TMP DP RH WIND PRES REMARKS AHOSKIE NOT AVBL CLINTON PTSUNNY 79 58 47 SW12G18 29.95F ELIZABETHTOWN MOSUNNY 80 56 44 SW14 29.96F GOLDSBORO PTSUNNY 80 59 48 SW14 29.92F GREENVILLE PTSUNNY 79 55 44 SW16 29.95F HAVELOCK PTSUNNY 80 59 48 SW15G23 29.96F KENANSVILLE PTSUNNY 78 56 47 SW9 29.96F KINSTON PTSUNNY 81 55 41 W7G20 29.94F NEW BERN PTSUNNY 80 60 50 SW10 29.96F RICHLANDS PTSUNNY 81 57 44 SW15 29.96F ROCKY MOUNT CLOUDY 76 58 53 SW10 29.94F WASHINGTON PTSUNNY 79 60 52 SW10 29.94F WHITEVILLE MOSUNNY 80 59 49 SW14 29.96F $$ AMZ130-135-150-152-154-156-158-170-250-252-270-ANZ085-086-088-633-658-670-292000- MARINE OBSERVATIONS STATION/POSITION TIME TEMP WIND PRES WAVE SWELL AIR SEA DIR/SP/G HT/PER HT/PER (UTC) (F) (DEG/KT/KT) (MB) (FT/S) (FT/S) CHESAPEAKE LIGHT 1800 69 190/ 17/ 18 1013.2 64 E VA BEACH 1900 69 67 190/ 12/ 14 1013.0 3/ 5 2/ 8 DUCK 1900 75 68 230/ 9/ 12 1012.7 2 E DUCK NOT AVBL 10 NE DUCK 1900 68 N/A 2/ 6 OREGON INLET 1900 69 67 190/ 14/ 17 1014.0 13E OREGON INLT 1900 71 N/A 3/ 7 HATTERAS CG 1900 74 71 220/ 9/ 14 1015.0 DIAMOND BUOY 1900 76 230/ 16/ 19 1014.8 4/ 5 2/ 8 17 S OCRACOKE 1800 VRB 17/ 21 1015.4 CAPE LOOKOUT 1800 74 220/ 8/ 11 1015.6 BEAUFORT LAB 1900 74 70 210/ 7/ 13 1014.3 30 SE NEW RIVER 1900 74 75 250/ 14/ 16 1014.7 3/ 5 5 SE WRIGHTSVLE 1900 70 71 210/ 14/ 17 N/A 225 S CAPE HAT 1755 76 77 160/ 4/ 6 1018.5 2/ 7 2/ 7 41 SE CHARLESTON 1900 75 77 250/ 12/ 14 1016.1 2/ 4 2/ 8 $$

USA.gov is the U.S. government's official web portal to all federal, state and local government web resources and services.